Wind_Speed
8 7 8 9 8 8 9 10 10 10 10 9 9 8 8 8 7 6 4 3 5 6 6 6 5 5 4 3 4 4 4 4 4 4 4 4 5 4 4 5 6 6 7 8 9 8 7 5 5 5 3 3 3 4 4 4 4 5 5 7 7 8 9
10 8 10 11 9 8 7 8 9 11 11 11 10 9 8 7 6 5 4 4 5 5 5 4 4 2 2 2 2 2 2 1 1 2 3 4 4 4 4 3 4 5 6 6 6 5 4 4 5 6 6 5 4 3 4 5 5 6 6 6 6 7 8
12 12 13 12 10 8 7 7 8 10 10 10 9 9 8 7 6 4 4 4 6 6 5 4 3 1 2 3 4 4 5 4 4 2 0 1 1 1 1 1 1 2 3 4 4 2 3 6 9 9 9 9 9 7 4 3 2 3 4 4 5 5 6
14 14 15 13 10 9 8 8 8 9 9 9 9 10 9 7 6 4 3 4 4 4 3 3 2 2 2 3 4 3 4 4 4 5 5 4 4 3 2 1 0 1 2 3 3 3 6 9 10 9 8 8 8 8 7 6 6 4 2 1 0 1 2
14 14 14 11 10 10 9 9 10 10 10 10 11 11 10 8 6 4 3 4 4 3 3 3 3 3 3 3 3 3 3 3 3 4 4 4 4 2 0 1 2 2 3 4 4 6 8 8 8 8 8 6 6 7 7 7 8 7 6 5 5 4 4
14 13 13 11 10 10 9 9 10 11 11 11 11 11 10 9 7 7 7 7 8 8 8 7 7 6 5 5 5 5 4 4 4 4 3 2 1 1 1 1 2 2 3 4 5 6 6 6 6 7 7 6 5 7 7 6 6 6 6 6 6 6 5
14 12 12 12 10 10 9 9 10 10 10 11 11 11 11 10 10 9 9 10 11 11 11 11 12 11 10 9 8 7 6 5 5 4 4 3 2 1 1 1 1 1 2 3 3 4 4 5 5 6 6 5 5 5 5 5 4 3 3 4 4 4 4
14 12 12 11 10 11 12 12 12 12 11 11 11 12 11 11 11 10 10 10 11 11 10 11 11 11 11 10 10 8 8 7 6 5 5 4 3 2 2 2 1 1 2 2 3 3 4 4 5 6 7 6 6 5 5 4 3 1 2 3 3 3 5
15 12 12 13 12 13 16 16 16 15 14 13 13 13 13 12 12 12 12 12 12 11 11 10 10 10 10 9 9 8 7 7 7 6 5 5 5 4 4 3 3 3 3 3 4 4 5 6 7 7 8 8 7 7 6 4 2 2 5 6 4 5 7
18 14 13 14 15 18 19 18 18 17 16 15 15 14 15 14 14 14 14 14 13 12 12 11 10 10 10 9 9 9 9 9 9 8 7 7 7 6 6 5 5 4 5 6 7 7 7 9 9 9 9 10 10 9 8 7 6 6 9 9 8 9 10
21 19 14 14 17 21 22 21 20 19 18 17 16 16 16 15 15 15 15 14 14 13 12 12 12 11 11 10 10 10 10 10 9 9 9 8 7 7 6 6 5 5 7 8 8 8 8 9 9 10 10 11 11 11 11 11 10 10 11 12 12 13 13
23 25 18 15 19 23 23 22 21 20 19 18 17 17 16 16 16 15 15 15 14 13 13 12 12 12 12 11 10 10 9 9 8 8 8 7 6 5 5 5 5 5 6 7 7 7 7 8 8 9 10 10 11 12 12 13 13 13 13 13 14 16 16
26 29 25 17 18 23 24 23 21 20 19 18 17 17 16 15 15 14 14 14 14 14 13 12 12 11 11 10 10 9 8 7 6 6 5 4 4 3 2 2 3 3 3 4 4 5 5 6 6 7 8 9 10 11 12 13 14 14 14 14 16 16 16
26 30 30 23 18 21 23 22 21 19 18 17 17 16 14 14 13 12 12 12 12 12 12 12 11 11 10 10 9 9 8 7 6 5 3 2 1 1 0 1 1 1 1 1 1 2 3 3 4 5 6 7 8 9 10 12 14 14 14 15 16 16 17
27 30 32 28 21 20 21 21 20 19 18 17 15 14 13 12 12 12 11 10 10 10 11 11 11 11 10 9 9 8 8 7 6 5 4 3 2 2 2 3 4 4 4 4 4 4 3 4 4 3 4 6 7 8 10 11 13 15 15 15 16 17 18
28 29 32 32 26 22 21 20 20 20 19 17 15 14 13 11 11 11 10 10 10 10 10 10 10 9 8 7 6 6 6 6 6 5 4 3 2 2 3 4 6 6 6 6 7 6 6 6 6 5 5 6 7 8 10 11 13 15 16 16 17 19 20
29 29 33 35 31 26 24 23 22 21 20 20 18 16 15 14 12 12 11 10 10 10 9 9 8 7 5 4 4 3 4 3 3 4 3 2 2 2 3 4 5 7 7 8 9 8 8 8 8 8 7 7 8 8 9 11 13 15 17 18 18 19 21
30 30 32 36 36 32 29 26 24 25 25 24 23 21 19 17 16 14 12 11 10 10 9 8 7 5 3 4 5 6 6 6 5 5 5 4 4 5 5 5 6 7 8 8 9 10 10 10 10 10 10 9 9 10 10 12 14 15 16 18 18 19 20
31 29 30 36 40 38 34 27 23 25 28 27 26 24 22 21 20 18 16 14 13 11 10 8 7 7 6 7 9 11 11 10 9 9 10 9 8 8 9 9 9 10 10 9 9 10 11 11 11 12 12 12 11 11 12 13 14 15 16 17 18 19 19
30 31 32 36 38 36 34 28 26 29 30 29 30 29 25 25 25 23 21 18 16 14 12 11 11 10 10 11 14 15 15 14 14 14 14 13 13 13 12 12 13 14 14 13 12 12 12 12 12 12 13 13 12 13 13 14 15 16 16 17 17 18 19
27 29 31 33 32 28 25 22 23 28 30 29 30 28 25 25 25 25 22 19 16 15 14 15 14 14 13 15 17 17 16 15 15 16 17 16 16 17 16 16 17 17 17 17 15 14 14 13 13 13 13 13 13 13 14 16 17 17 16 17 17 18 19
23 22 22 23 24 25 24 20 18 21 26 27 26 24 25 27 27 26 23 18 16 15 15 16 17 17 16 17 18 17 16 17 18 19 19 19 19 18 18 19 20 20 21 20 19 18 17 15 15 15 15 14 14 14 15 17 18 17 17 17 18 18 19
25 23 22 22 25 28 28 25 21 22 26 29 28 27 27 27 28 27 24 21 20 19 17 18 19 19 20 21 21 19 18 19 20 20 20 19 19 19 19 20 21 22 23 23 21 20 19 18 16 16 16 16 15 15 16 18 18 18 18 18 19 20 20
27 26 25 27 29 29 26 22 20 22 25 27 29 30 27 25 26 26 24 22 21 20 19 20 22 23 23 23 21 19 19 20 21 20 20 20 20 19 19 19 20 22 25 25 24 23 21 19 18 17 17 17 17 16 17 18 19 19 19 20 21 22 23
23 23 24 26 26 25 24 22 22 22 23 23 25 26 24 22 23 23 21 19 19 19 19 21 21 22 21 20 19 19 20 21 21 21 21 21 21 20 19 19 19 21 25 27 26 24 22 20 18 19 19 18 18 18 18 19 20 21 21 22 23 23 24
18 21 23 23 23 23 22 20 20 20 19 19 21 22 21 20 20 19 17 16 16 17 18 18 17 17 18 19 20 21 21 22 23 23 23 22 21 20 19 19 18 19 23 26 26 24 23 22 21 21 20 18 18 19 19 20 22 23 24 24 24 25 25
17 20 21 20 19 19 18 16 16 15 14 16 18 19 18 18 17 16 15 15 15 15 14 13 14 15 17 18 20 21 22 22 23 23 23 22 21 19 18 17 16 17 21 25 25 24 24 23 22 21 18 18 19 20 21 22 24 25 26 26 26 26 26
16 18 18 17 16 15 15 14 14 13 13 14 15 15 14 14 14 14 14 14 14 13 13 13 14 15 15 16 17 18 18 18 18 19 19 19 18 18 16 15 14 16 20 23 23 24 24 22 21 20 19 20 20 20 21 23 25 26 26 26 27 26 27
13 14 15 15 15 15 15 14 14 14 14 14 14 14 13 13 13 13 13 13 14 14 14 14 13 13 12 12 13 13 12 12 13 14 15 15 15 15 13 13 13 16 20 21 22 23 23 22 21 21 20 20 20 21 23 24 26 27 26 26 27 27 27
13 14 15 15 15 15 15 15 15 15 15 14 14 14 13 13 13 12 12 12 12 12 11 11 10 10 10 11 11 12 11 11 12 12 12 12 12 11 10 11 13 16 19 21 22 23 23 22 22 21 20 20 20 22 24 26 27 27 27 27 28 28 29
15 15 15 15 14 14 14 14 15 15 15 14 13 13 13 12 11 10 9 8 8 8 8 9 10 12 12 13 13 14 14 14 14 14 13 12 11 10 9 10 12 15 18 21 22 23 22 21 21 20 21 22 23 24 25 26 27 27 28 28 29 29 29
16 16 17 16 14 13 12 12 12 13 14 13 13 12 11 10 9 8 7 7 8 8 9 11 12 14 14 14 15 15 15 16 15 15 13 12 11 10 11 11 13 15 17 19 20 20 20 20 21 22 24 24 25 26 27 27 27 27 28 29 30 30 31
17 16 15 15 14 14 13 11 10 10 11 11 10 10 9 9 9 9 9 10 10 10 11 13 14 15 15 15 15 15 15 15 15 14 13 11 10 10 12 13 14 16 18 19 20 20 21 22 23 24 25 26 27 27 27 27 27 28 29 30 31 32 32
18 15 14 14 13 13 12 10 9 9 10 9 9 8 7 7 8 8 9 11 11 12 13 14 15 16 16 15 14 15 15 15 15 14 13 12 11 11 12 13 15 17 18 18 20 20 21 21 22 23 24 25 26 25 25 26 27 29 30 31 31 32 32
14 14 15 15 15 14 13 11 11 11 11 11 10 9 9 9 9 10 11 12 12 13 13 14 15 15 15 14 14 14 15 16 16 15 14 13 12 12 12 13 14 15 17 17 18 19 20 21 22 23 24 24 24 25 26 28 29 30 30 30 31 31 32
11 12 13 14 14 14 15 15 14 14 14 14 13 12 11 11 11 12 13 13 13 13 13 14 14 14 14 14 14 15 16 16 16 15 13 12 12 12 12 13 13 14 15 16 18 19 21 22 23 23 24 24 25 26 27 28 28 29 30 30 31 32 33
14 13 12 12 13 13 13 15 15 15 15 15 14 13 12 12 12 14 15 15 14 13 13 13 13 13 13 14 15 16 16 15 15 14 14 14 13 13 13 13 14 15 16 17 19 20 21 21 22 22 23 23 24 25 26 27 27 29 30 31 32 33 33
Wind_Direction
225 221 195 186 193 203 212 215 212 209 209 217 220 210 194 190 195 197 193 191 198 204 203 197 190 190 199 196 185 193 207 217 218 223 226 229 249 261 254 258 267 278 293 304 307 306 309 320 343 351 336 316 311 308 306 294 291 293 290 293 290 283 277
221 212 188 179 183 189 197 205 207 211 212 213 215 209 195 189 191 192 177 159 165 175 180 179 174 168 164 157 144 137 142 144 199 231 233 231 239 248 252 256 267 287 302 312 318 315 329 354 2 356 349 358 11 354 322 302 292 286 287 288 282 275 274
213 199 186 180 180 182 188 197 200 205 205 198 190 185 184 187 191 198 192 169 161 162 171 183 198 203 149 141 130 99 84 79 75 68 79 214 213 216 216 216 287 317 318 325 334 342 349 346 343 341 347 11 42 55 41 9 335 298 291 279 266 266 275
211 198 192 185 180 183 189 193 188 188 192 184 170 167 173 185 193 201 197 185 182 180 189 200 214 223 157 146 139 107 92 94 89 79 79 94 103 102 104 117 345 317 310 318 325 317 322 329 335 343 354 20 54 75 79 74 74 67 53 50 231 281 303
212 202 199 190 184 188 189 190 184 176 178 179 175 171 173 179 183 179 163 160 170 175 183 183 186 196 194 189 185 167 156 147 123 108 103 108 111 105 98 257 269 274 285 299 299 299 311 323 335 347 356 22 71 100 105 97 90 79 71 71 68 64 51
211 204 199 192 188 191 189 186 180 174 172 174 172 169 166 160 152 142 133 129 130 131 131 130 131 136 143 155 165 161 152 143 140 142 145 148 164 238 243 235 268 283 293 302 303 308 321 336 348 358 5 20 79 124 134 122 102 82 73 74 67 60 53
206 195 191 189 188 187 181 171 166 166 167 162 159 156 152 148 145 139 133 129 128 128 127 123 120 118 118 120 125 130 132 135 141 148 154 168 176 173 148 147 272 301 314 323 330 341 358 3 9 24 29 41 85 126 145 138 121 101 73 63 55 43 35
206 188 185 186 184 178 166 155 151 151 154 151 147 148 147 146 146 143 139 135 132 132 133 130 124 120 117 116 118 124 131 133 135 142 148 150 145 134 118 103 79 60 34 22 21 23 24 21 23 32 39 61 90 107 126 127 125 119 30 10 351 336 342
214 194 187 184 179 170 159 150 145 144 146 146 144 142 141 142 141 139 137 136 134 134 134 132 127 120 116 114 114 117 121 119 117 122 125 120 115 110 102 94 75 66 62 56 48 37 33 29 30 36 43 54 66 76 91 91 75 52 14 355 337 336 337
223 209 194 187 178 168 160 153 150 150 149 147 145 141 136 136 135 133 133 132 132 132 131 129 125 119 115 113 111 110 110 108 106 107 104 100 101 100 96 88 79 76 71 61 50 42 40 34 31 35 39 42 43 45 48 43 40 33 16 4 353 349 348
228 222 205 192 184 173 166 163 160 157 156 153 150 148 143 137 133 130 129 128 128 129 128 126 122 120 117 114 110 107 104 103 103 103 102 98 94 91 88 84 81 77 70 61 50 42 37 31 27 27 28 28 28 29 29 28 27 20 13 10 0 351 348
226 227 217 201 193 182 173 170 168 164 165 165 162 159 155 148 141 136 132 130 129 128 126 124 123 121 119 117 114 109 103 101 99 97 97 99 94 87 82 80 76 67 63 60 53 42 31 20 18 19 19 17 19 21 19 16 16 12 6 4 360 350 344
225 228 222 211 202 194 184 178 176 173 172 173 171 171 169 163 157 150 145 143 140 138 136 133 131 129 128 128 126 125 122 117 112 104 96 95 94 93 85 76 71 63 57 57 53 45 29 14 11 14 12 8 11 13 11 6 2 4 2 356 353 348 342
227 228 225 219 212 207 199 191 187 185 183 181 178 177 176 174 172 168 161 157 154 151 150 148 147 145 144 145 143 142 143 143 141 138 135 138 144 135 85 315 297 289 290 318 5 14 6 359 358 6 2 359 4 5 2 359 353 354 357 352 346 343 340
229 228 226 223 219 215 211 206 203 203 199 194 189 184 179 177 179 181 177 171 165 161 158 157 157 156 156 159 160 159 162 165 167 168 170 190 226 259 288 302 301 291 280 278 284 292 307 319 324 331 338 343 349 350 350 351 347 344 346 346 342 338 337
229 228 226 226 225 220 215 213 213 216 215 209 205 201 195 188 183 184 184 179 172 168 163 160 159 159 161 166 170 173 176 176 176 176 174 186 214 257 291 306 311 306 296 289 289 292 296 302 307 308 315 324 329 333 337 340 340 336 336 338 338 334 333
225 226 227 227 227 225 219 213 212 216 219 218 217 215 211 205 198 193 190 187 183 179 178 178 178 176 178 192 210 216 213 209 203 196 189 196 223 257 283 298 307 309 305 298 295 298 302 303 305 302 300 302 308 316 325 330 333 330 328 329 331 330 330
223 228 234 230 227 229 224 218 217 217 218 221 221 220 219 217 212 205 199 200 206 207 209 215 216 216 229 251 263 265 258 254 259 256 252 255 264 273 281 289 296 299 301 301 295 295 299 301 300 296 293 294 298 308 318 324 326 325 323 322 324 325 325
224 230 240 233 226 227 224 221 227 228 224 225 225 224 223 222 220 215 209 209 219 225 232 246 257 264 274 285 290 287 272 260 260 263 265 268 272 277 283 286 287 288 292 296 292 288 292 296 295 293 293 293 295 302 310 316 320 320 319 318 319 320 320
227 229 235 230 224 225 226 225 231 235 232 230 230 227 226 227 225 222 220 218 221 228 239 254 267 274 280 294 300 294 281 267 261 261 267 269 268 272 279 282 283 283 286 288 287 285 287 291 292 291 290 291 293 297 303 312 317 317 315 315 316 316 318
224 222 224 222 219 224 231 231 233 238 237 235 234 233 235 239 237 231 231 233 238 244 249 256 264 271 279 295 303 298 287 278 273 273 277 279 273 270 273 276 278 279 280 282 281 280 282 285 288 290 290 291 293 295 301 309 314 315 315 314 314 314 314
210 210 213 217 221 228 238 244 248 251 243 236 236 237 238 245 246 237 234 243 251 251 252 259 267 268 272 286 295 292 287 286 287 285 284 284 280 275 273 273 274 275 276 277 277 277 278 279 283 287 289 291 293 294 302 309 312 313 314 314 312 311 310
216 220 222 230 241 245 246 248 251 250 241 233 231 232 235 244 246 238 237 246 250 248 251 259 262 259 264 277 283 281 280 283 284 283 282 282 281 278 275 274 274 273 273 273 273 274 274 274 278 283 286 290 291 292 300 307 310 312 313 314 314 312 311
231 232 229 236 246 247 244 242 239 236 232 228 227 229 237 245 242 237 243 252 252 251 254 256 256 257 264 272 274 273 274 276 276 278 280 281 282 280 276 274 272 270 268 268 269 270 269 268 271 276 282 286 286 288 298 307 311 312 313 313 314 315 317
240 237 234 238 243 243 241 239 236 233 232 231 230 234 241 241 236 239 249 254 251 251 254 255 257 262 266 269 270 273 278 280 282 283 282 282 283 282 280 276 272 268 265 264 265 266 263 260 263 271 278 282 283 289 299 306 308 309 311 311 313 315 317
237 235 234 236 237 239 239 234 231 233 234 233 233 234 235 236 236 241 246 247 246 248 252 256 260 265 268 270 274 279 282 285 287 287 285 284 282 282 282 278 275 272 264 258 258 261 259 256 260 270 276 278 282 290 297 302 305 307 309 310 312 314 315
230 230 230 231 230 229 224 219 219 222 220 220 222 223 225 229 233 235 237 240 243 246 250 255 260 265 271 275 279 283 286 288 289 288 288 286 284 284 283 279 280 277 263 255 256 257 255 255 262 270 274 275 280 287 292 298 303 305 306 308 309 310 311
219 221 218 216 212 206 203 203 205 205 203 205 208 212 217 222 224 226 230 235 240 246 252 258 265 272 279 284 289 292 295 295 294 294 293 291 289 288 285 281 281 275 263 257 255 252 250 253 261 266 269 273 279 285 291 296 300 302 302 303 303 304 305
202 200 195 193 194 195 197 198 197 198 199 201 204 208 211 215 219 225 232 240 248 255 260 266 274 283 290 295 300 306 310 309 307 305 303 299 295 292 289 283 274 264 258 256 251 247 248 254 261 265 268 273 281 288 292 295 298 298 297 297 297 297 298
199 195 192 192 193 195 198 201 203 206 207 208 213 217 221 226 231 236 242 247 254 259 265 274 285 297 304 305 309 317 322 324 325 323 320 315 309 304 299 290 276 263 256 252 248 248 252 259 264 267 269 276 283 289 292 294 295 294 293 293 293 293 294
203 203 200 197 198 206 214 218 218 218 218 221 224 227 230 233 235 238 242 249 258 268 278 289 298 306 311 313 316 321 324 328 333 332 329 326 321 318 310 296 280 266 257 252 251 253 257 262 265 268 271 278 285 289 290 291 290 289 288 288 288 289 291
206 209 209 208 213 219 221 218 217 218 220 222 224 225 227 228 232 240 250 260 271 279 285 292 297 302 307 311 315 319 323 328 333 333 329 322 317 313 304 291 279 267 259 256 257 259 262 265 269 272 277 284 289 289 288 286 284 283 282 283 284 286 289
213 215 218 223 226 221 214 211 212 215 215 215 220 224 228 235 244 253 260 266 271 277 282 287 290 294 299 304 307 311 316 322 326 326 322 315 305 297 288 281 277 272 268 267 269 270 271 272 273 276 282 287 288 286 284 283 282 282 283 285 287 290 293
213 214 217 220 218 215 216 219 218 217 216 215 219 226 234 249 259 265 271 273 274 275 278 281 285 287 290 293 297 302 308 314 318 316 312 306 300 293 284 277 275 274 275 276 276 276 277 277 278 281 283 283 281 280 281 283 285 287 289 291 293 295 297
210 206 205 206 208 211 217 219 218 222 227 228 234 244 254 262 270 276 280 282 281 279 279 280 281 282 284 287 292 297 302 306 309 309 305 301 298 293 286 279 275 274 275 275 277 280 282 282 282 281 279 279 280 283 287 288 290 291 292 294 296 298 299
218 213 208 207 209 212 216 216 215 219 225 231 240 247 254 261 269 277 285 289 287 283 280 280 280 280 284 291 295 297 300 302 302 300 297 293 289 287 283 280 277 276 276 276 277 278 278 277 276 277 279 283 286 289 290 291 292 294 295 297 298 299 300
229 224 222 223 222 219 216 215 215 218 222 229 236 242 252 265 274 282 288 290 289 287 282 277 276 281 289 296 297 297 298 298 295 292 289 287 284 283 282 280 277 276 275 274 274 273 273 274 276 280 284 287 289 290 292 293 295 296 297 298 298 299 300
Height
1525 1525 1525 1525 1525 1525 1526 1526 1527 1527 1527 1528 1528 1529 1529 1530 1530 1531 1531 1532 1532 1533 1533 1534 1535 1536 1536 1537 1538 1538 1539 1539 1539 1540 1540 1541 1541 1542 1542 1543 1544 1544 1545 1545 1546 1546 1546 1546 1547 1547 1547 1547 1547 1547 1546 1546 1546 1546 1546 1546 1546 1545 1545
1525 1525 1525 1526 1526 1526 1526 1526 1526 1527 1527 1528 1528 1529 1530 1530 1531 1531 1531 1531 1532 1533 1534 1534 1535 1536 1537 1537 1538 1539 1539 1539 1539 1540 1540 1541 1541 1542 1542 1543 1544 1544 1545 1545 1546 1546 1546 1547 1547 1547 1547 1547 1547 1546 1546 1545 1545 1545 1545 1545 1545 1545 1544
1525 1525 1525 1526 1526 1526 1527 1527 1527 1527 1527 1528 1528 1529 1530 1531 1531 1531 1531 1531 1532 1533 1534 1534 1535 1536 1537 1538 1538 1539 1539 1539 1540 1540 1540 1541 1542 1542 1543 1544 1544 1545 1546 1546 1546 1546 1547 1547 1547 1547 1546 1546 1546 1546 1545 1545 1545 1544 1544 1545 1545 1544 1544
1524 1524 1525 1526 1526 1527 1527 1527 1527 1527 1528 1528 1529 1529 1530 1531 1532 1532 1532 1532 1532 1533 1534 1534 1535 1536 1537 1538 1538 1539 1540 1540 1540 1541 1541 1541 1542 1543 1543 1544 1545 1545 1546 1546 1546 1547 1547 1547 1546 1546 1546 1546 1546 1546 1546 1545 1545 1544 1545 1545 1545 1544 1544
1524 1524 1525 1526 1527 1527 1527 1528 1528 1528 1528 1529 1529 1530 1531 1531 1532 1533 1533 1533 1533 1533 1534 1535 1535 1536 1537 1538 1538 1539 1540 1540 1541 1541 1542 1542 1543 1543 1544 1544 1545 1545 1546 1546 1546 1546 1546 1546 1546 1546 1545 1546 1546 1546 1546 1546 1546 1545 1545 1545 1545 1545 1545
1524 1525 1525 1526 1527 1527 1528 1528 1528 1529 1529 1529 1530 1530 1531 1532 1533 1533 1533 1534 1534 1535 1535 1535 1536 1536 1537 1538 1539 1539 1540 1541 1541 1542 1543 1543 1543 1544 1544 1545 1545 1545 1546 1546 1546 1546 1546 1546 1546 1545 1545 1545 1546 1546 1546 1546 1546 1546 1546 1546 1546 1546 1545
1525 1526 1526 1527 1528 1528 1529 1529 1529 1530 1530 1530 1531 1531 1532 1533 1533 1534 1534 1535 1535 1536 1536 1537 1537 1537 1538 1538 1539 1540 1541 1542 1542 1543 1543 1543 1544 1544 1545 1545 1545 1545 1546 1546 1546 1546 1546 1546 1545 1545 1545 1545 1546 1546 1546 1546 1547 1546 1546 1546 1546 1546 1546
1526 1526 1527 1528 1528 1529 1530 1530 1530 1530 1531 1531 1532 1532 1533 1533 1534 1535 1535 1535 1536 1537 1537 1538 1538 1538 1539 1539 1540 1541 1541 1542 1543 1543 1544 1544 1544 1545 1545 1545 1546 1546 1546 1546 1546 1546 1546 1546 1545 1545 1545 1545 1545 1546 1546 1547 1547 1547 1547 1546 1546 1546 1546
1526 1527 1527 1528 1529 1530 1530 1530 1530 1531 1531 1532 1533 1533 1533 1534 1535 1535 1535 1536 1536 1537 1538 1538 1539 1539 1540 1540 1540 1541 1542 1542 1543 1544 1544 1545 1545 1545 1545 1546 1546 1546 1547 1547 1547 1546 1546 1546 1546 1545 1545 1545 1545 1546 1546 1547 1546 1546 1546 1546 1546 1546 1545
1526 1527 1527 1528 1528 1529 1530 1530 1530 1531 1531 1532 1533 1534 1534 1534 1535 1535 1535 1536 1536 1537 1538 1539 1539 1540 1540 1541 1541 1542 1542 1543 1544 1544 1545 1545 1545 1546 1546 1546 1547 1547 1547 1547 1547 1547 1546 1546 1546 1546 1546 1545 1545 1545 1546 1546 1546 1546 1546 1546 1545 1545 1545
1526 1527 1528 1528 1529 1529 1529 1529 1530 1530 1531 1532 1533 1534 1534 1535 1535 1536 1536 1536 1537 1538 1538 1539 1540 1540 1541 1541 1542 1542 1543 1543 1544 1545 1546 1546 1546 1547 1547 1547 1547 1548 1548 1548 1547 1547 1547 1547 1546 1546 1546 1546 1545 1545 1545 1546 1546 1546 1546 1546 1545 1544 1544
1524 1526 1528 1528 1529 1528 1528 1529 1529 1530 1531 1532 1532 1533 1534 1535 1536 1536 1536 1537 1538 1538 1539 1539 1540 1540 1541 1541 1542 1542 1543 1544 1545 1545 1546 1547 1547 1547 1548 1548 1548 1548 1548 1548 1548 1548 1548 1547 1547 1547 1546 1546 1545 1545 1545 1545 1545 1545 1545 1545 1545 1544 1543
1523 1525 1527 1528 1529 1528 1528 1529 1529 1530 1531 1532 1533 1534 1535 1536 1536 1537 1537 1537 1538 1538 1539 1540 1540 1540 1541 1541 1542 1542 1543 1544 1544 1545 1546 1547 1547 1548 1548 1548 1549 1549 1549 1549 1549 1548 1548 1548 1548 1548 1547 1546 1546 1546 1545 1545 1545 1545 1545 1544 1544 1543 1542
1521 1523 1526 1527 1529 1529 1529 1529 1530 1531 1532 1533 1534 1535 1536 1537 1537 1538 1538 1538 1538 1539 1539 1540 1540 1541 1541 1541 1542 1542 1543 1543 1544 1545 1545 1546 1547 1548 1548 1548 1548 1549 1549 1549 1549 1549 1549 1548 1548 1548 1548 1547 1547 1546 1545 1545 1544 1544 1544 1544 1543 1542 1541
1520 1522 1525 1527 1528 1529 1529 1530 1531 1532 1532 1533 1535 1535 1536 1537 1538 1539 1539 1539 1539 1539 1540 1540 1541 1541 1541 1542 1542 1542 1543 1543 1543 1544 1545 1545 1546 1547 1547 1548 1548 1548 1548 1548 1548 1548 1548 1548 1548 1548 1548 1547 1547 1546 1545 1545 1544 1543 1543 1543 1542 1541 1540
1520 1522 1524 1526 1527 1528 1528 1530 1531 1532 1533 1534 1535 1536 1537 1538 1538 1539 1539 1540 1540 1540 1540 1541 1541 1542 1542 1542 1543 1543 1543 1543 1543 1543 1544 1544 1545 1546 1546 1547 1547 1547 1547 1547 1547 1547 1547 1547 1547 1547 1547 1546 1546 1545 1545 1544 1543 1542 1541 1541 1541 1539 1538
1517 1519 1521 1523 1525 1526 1526 1527 1529 1530 1532 1533 1534 1535 1536 1537 1538 1539 1540 1540 1540 1540 1541 1541 1541 1542 1542 1543 1543 1543 1544 1544 1543 1543 1543 1543 1544 1545 1545 1546 1546 1546 1546 1547 1546 1546 1546 1546 1546 1546 1545 1545 1545 1545 1544 1543 1543 1542 1541 1540 1539 1538 1537
1514 1516 1518 1521 1523 1524 1525 1526 1528 1529 1530 1531 1532 1533 1534 1536 1537 1539 1540 1540 1541 1541 1541 1541 1541 1541 1542 1542 1542 1543 1543 1544 1544 1544 1544 1543 1543 1544 1544 1545 1545 1545 1545 1546 1546 1545 1545 1545 1545 1544 1544 1544 1544 1543 1543 1543 1542 1542 1540 1539 1538 1537 1536
1512 1513 1516 1519 1521 1521 1522 1525 1528 1529 1530 1531 1531 1532 1533 1534 1536 1537 1539 1539 1540 1541 1541 1541 1541 1541 1541 1541 1542 1542 1542 1542 1543 1543 1543 1543 1543 1543 1543 1544 1544 1544 1544 1545 1545 1545 1545 1544 1544 1544 1543 1543 1543 1542 1542 1542 1541 1540 1540 1538 1537 1536 1535
1509 1510 1513 1516 1518 1519 1521 1524 1526 1527 1529 1530 1531 1531 1532 1533 1534 1536 1538 1538 1539 1540 1541 1541 1541 1541 1541 1541 1541 1541 1541 1541 1541 1541 1542 1542 1542 1542 1542 1542 1542 1542 1542 1543 1543 1543 1543 1543 1543 1543 1542 1542 1542 1541 1541 1540 1540 1539 1538 1537 1536 1535 1534
1508 1509 1511 1513 1515 1518 1520 1522 1524 1525 1527 1530 1531 1532 1533 1534 1535 1537 1538 1539 1539 1539 1539 1540 1540 1540 1540 1540 1540 1540 1540 1540 1540 1540 1540 1540 1540 1540 1540 1540 1540 1540 1540 1541 1541 1541 1541 1541 1541 1541 1541 1541 1541 1540 1540 1539 1539 1538 1537 1536 1535 1535 1534
1507 1510 1512 1513 1514 1516 1517 1521 1524 1526 1527 1529 1531 1531 1533 1534 1535 1537 1538 1539 1539 1538 1537 1538 1539 1539 1539 1539 1539 1539 1538 1538 1538 1538 1538 1538 1538 1538 1538 1538 1538 1538 1538 1539 1539 1539 1539 1540 1539 1539 1539 1539 1539 1539 1538 1538 1537 1536 1536 1535 1534 1533 1533
1505 1509 1512 1514 1514 1514 1515 1518 1522 1523 1524 1525 1527 1529 1531 1532 1534 1536 1536 1536 1537 1536 1536 1536 1537 1537 1537 1537 1537 1537 1536 1536 1536 1535 1535 1535 1535 1535 1536 1536 1536 1536 1536 1537 1537 1537 1537 1537 1537 1537 1537 1537 1537 1537 1536 1536 1535 1534 1534 1533 1532 1532 1531
1503 1506 1509 1512 1512 1512 1514 1516 1518 1519 1520 1522 1524 1526 1528 1530 1531 1533 1534 1534 1534 1534 1534 1535 1535 1535 1536 1535 1535 1534 1534 1533 1533 1533 1533 1532 1532 1532 1532 1533 1533 1533 1534 1534 1535 1535 1535 1535 1535 1535 1535 1535 1535 1535 1534 1533 1533 1532 1531 1531 1530 1529 1528
1503 1505 1507 1509 1510 1511 1513 1514 1515 1517 1519 1520 1522 1524 1526 1527 1528 1530 1531 1531 1532 1532 1533 1533 1534 1534 1534 1533 1532 1532 1531 1531 1531 1531 1530 1530 1530 1529 1529 1529 1529 1530 1531 1532 1532 1533 1533 1533 1533 1533 1533 1533 1533 1533 1532 1531 1530 1530 1529 1528 1528 1527 1526
1502 1504 1506 1507 1509 1510 1511 1512 1514 1515 1517 1518 1520 1521 1523 1525 1526 1528 1529 1529 1529 1530 1531 1531 1532 1532 1531 1531 1530 1530 1529 1529 1528 1528 1527 1527 1527 1527 1526 1526 1526 1527 1528 1529 1530 1531 1531 1531 1531 1531 1531 1531 1531 1530 1529 1529 1528 1527 1527 1526 1526 1525 1524
1502 1503 1505 1506 1508 1509 1510 1512 1513 1514 1516 1517 1518 1520 1522 1523 1525 1526 1526 1527 1528 1528 1529 1529 1529 1529 1529 1529 1528 1527 1527 1527 1526 1525 1525 1524 1524 1524 1524 1524 1523 1524 1525 1527 1528 1528 1529 1529 1529 1529 1529 1529 1528 1527 1527 1526 1526 1525 1525 1524 1523 1523 1522
1501 1502 1504 1505 1507 1508 1510 1512 1513 1514 1515 1516 1518 1519 1521 1522 1523 1524 1525 1525 1526 1527 1527 1527 1527 1527 1527 1527 1526 1525 1525 1524 1524 1523 1522 1522 1521 1521 1521 1521 1521 1523 1524 1525 1526 1526 1527 1527 1527 1527 1527 1526 1526 1525 1525 1525 1524 1524 1523 1522 1521 1520 1519
1501 1502 1504 1505 1507 1508 1510 1512 1513 1514 1515 1516 1517 1518 1519 1520 1521 1522 1523 1524 1524 1525 1525 1525 1525 1525 1525 1525 1524 1523 1523 1522 1522 1521 1521 1520 1519 1519 1519 1519 1520 1521 1522 1523 1524 1524 1525 1525 1525 1525 1525 1524 1524 1524 1523 1523 1522 1521 1520 1519 1519 1518 1517
1502 1503 1504 1506 1507 1509 1510 1511 1512 1513 1514 1515 1516 1517 1518 1519 1520 1520 1521 1521 1522 1523 1523 1523 1523 1523 1523 1523 1523 1522 1522 1521 1520 1520 1519 1519 1518 1518 1518 1518 1519 1520 1520 1521 1522 1522 1523 1523 1523 1522 1522 1522 1522 1522 1521 1520 1520 1519 1518 1517 1516 1515 1515
1502 1503 1504 1506 1507 1508 1509 1510 1511 1512 1513 1513 1514 1515 1516 1517 1518 1519 1519 1519 1520 1520 1521 1521 1521 1521 1521 1521 1521 1520 1520 1520 1519 1518 1518 1517 1517 1517 1517 1518 1518 1519 1519 1520 1520 1520 1521 1521 1521 1520 1520 1520 1520 1520 1519 1518 1517 1516 1515 1514 1513 1513 1512
1502 1503 1504 1505 1506 1507 1508 1509 1510 1510 1511 1512 1513 1514 1515 1516 1517 1517 1518 1518 1518 1518 1519 1519 1519 1520 1520 1519 1519 1519 1518 1518 1518 1517 1517 1516 1516 1516 1517 1517 1518 1518 1518 1518 1519 1519 1519 1519 1519 1518 1518 1518 1518 1517 1517 1516 1515 1514 1513 1512 1511 1511 1510
1502 1503 1504 1504 1505 1506 1507 1508 1508 1509 1510 1511 1512 1513 1514 1515 1516 1516 1517 1517 1517 1517 1517 1518 1518 1518 1518 1517 1517 1517 1516 1516 1516 1516 1516 1516 1516 1516 1516 1516 1517 1517 1517 1517 1517 1517 1517 1517 1517 1516 1516 1516 1515 1514 1514 1513 1512 1511 1510 1509 1508 1507 1506
1501 1502 1503 1503 1504 1505 1506 1507 1507 1508 1509 1511 1512 1512 1513 1514 1515 1515 1516 1516 1516 1516 1516 1517 1517 1517 1516 1516 1516 1515 1515 1515 1515 1515 1515 1515 1515 1515 1515 1515 1515 1515 1515 1515 1515 1515 1515 1515 1514 1514 1514 1513 1513 1512 1511 1510 1509 1508 1507 1506 1504 1503 1502
1500 1500 1501 1502 1502 1503 1504 1505 1506 1507 1508 1509 1510 1511 1512 1512 1513 1514 1514 1515 1515 1515 1515 1515 1515 1515 1515 1515 1514 1514 1514 1514 1513 1513 1513 1513 1513 1513 1513 1513 1513 1513 1513 1513 1513 1513 1513 1513 1512 1512 1511 1511 1510 1509 1508 1507 1506 1505 1503 1502 1500 1499 1498
1498 1499 1499 1500 1501 1502 1503 1504 1505 1505 1506 1507 1508 1509 1510 1511 1512 1512 1513 1513 1513 1513 1513 1513 1514 1514 1513 1513 1513 1513 1512 1512 1512 1512 1512 1511 1511 1511 1511 1512 1512 1512 1512 1512 1512 1512 1511 1511 1510 1509 1509 1508 1507 1506 1505 1504 1503 1501 1500 1498 1497 1495 1494
1496 1497 1498 1499 1499 1500 1501 1502 1502 1503 1504 1505 1506 1507 1508 1509 1510 1510 1510 1511 1511 1512 1512 1512 1512 1512 1512 1512 1511 1511 1510 1510 1510 1510 1510 1509 1509 1510 1510 1510 1510 1510 1510 1510 1510 1509 1509 1508 1508 1507 1506 1505 1504 1503 1502 1501 1499 1498 1496 1495 1493 1491 1490